Weather History for Green Bay, WI

Change the Weather History Date:

Friday, November 1, 2013

  Actual Average Record
Temperature  
Mean Temperature 46 °F 41 °F  
Max Temperature 49 °F 50 °F 74 °F (1933)
Min Temperature 43 °F 33 °F 16 °F (1951)
Degree Days  
Heating Degree Days 19 24  
Month to date heating degree days 19 24  
Since 1 July heating degree days 717 850  
Cooling Degree Days 0 0  
Month to date cooling degree days 0 0  
Year to date cooling degree days 535 398  
Moisture  
Dew Point 43 °F    
Average Humidity 90    
Maximum Humidity 100    
Minimum Humidity 80    
Precipitation  
Precipitation 0.24 in 0.08 in 2.23 in (1985)
Month to date precipitation 0.24 0.08  
Year to date precipitation 30.07 25.96  
Snow  
Snow 0.00 in 0.00 in 3.00 in (1910)
Month to date snowfall 0.0 0.0  
Since 1 July snowfall T 0.2  
Since 1 September snowfall T 0.2  
Snow Depth 0.00 in    
Sea Level Pressure  
Sea Level Pressure 29.49 in    
Wind  
Wind Speed 10 mph (West)    
Max Wind Speed 23 mph    
Max Gust Speed 30 mph    
Visibility 8 miles    
Events Rain    
T = Trace of Precipitation, MM = Missing Value Source: NWS Daily Summary

Daily Weather History Graph

Daily Weather History Graph

Search for Another Location

Airport:

Trip Planner

Search our weather history database for the weather conditions in past years. The results will help you decide how hot, cold, wet, or windy it might be!

Date:

Astronomy

Nov. 01, 2013 Rise Set
Actual Time 7:30 AM CDT 5:41 PM CDT
Civil Twilight 6:59 AM CDT 6:11 PM CDT
Nautical Twilight 6:25 AM CDT 6:45 PM CDT
Astronomical Twilight 5:51 AM CDT 7:19 PM CDT
Moon 5:18 AM CDT (11/1) 4:37 PM CDT (11/1)
Length of Visible Light 11h 11m
Length of Day
10h 11m
Waning Crescent, 4% of the Moon is Illuminated
Nov 1
Waning Crescent
Nov 3
New
Nov 9
First Quarter
Nov 17
Full
Nov 25
Last Quarter

Hourly Weather History & Observations

Time (CDT) Temp. Windchill Dew Point Humidity Pressure Visibility Wind Dir Wind Speed Gust Speed Precip Events Conditions
12:00 AM 46.9 °F - 45.0 °F 93% 29.19 in 7.0 mi West 19.6 mph 26.5 mph 0.01 in Rain Light Rain
12:34 AM 46.0 °F 39.3 °F 44.1 °F 93% 29.19 in 7.0 mi WSW 16.1 mph - 0.05 in Rain Light Rain
12:53 AM 46.0 °F 39.0 °F 44.1 °F 93% 29.21 in 6.0 mi WSW 17.3 mph - 0.07 in Rain Rain
1:15 AM 45.0 °F 37.1 °F 44.1 °F 97% 29.21 in 5.0 mi West 19.6 mph 25.3 mph 0.03 in Rain Rain
1:53 AM 45.0 °F 37.6 °F 43.0 °F 93% 29.23 in 10.0 mi West 17.3 mph 25.3 mph 0.08 in Rain Light Rain
2:53 AM 45.0 °F 37.6 °F 43.0 °F 93% 29.25 in 8.0 mi West 17.3 mph - 0.00 in   Overcast
3:53 AM 45.0 °F 36.9 °F 42.1 °F 90% 29.27 in 10.0 mi West 20.7 mph 25.3 mph N/A   Overcast
4:53 AM 44.1 °F 36.5 °F 42.1 °F 93% 29.31 in 10.0 mi West 17.3 mph - 0.00 in   Overcast
5:53 AM 44.1 °F 36.8 °F 42.1 °F 93% 29.34 in 10.0 mi West 16.1 mph 23.0 mph N/A   Overcast
6:15 AM 44.1 °F 37.4 °F 42.1 °F 93% 29.35 in 10.0 mi West 13.8 mph - N/A   Overcast
6:53 AM 45.0 °F 38.5 °F 42.1 °F 90% 29.38 in 10.0 mi West 13.8 mph - N/A   Overcast
7:53 AM 44.1 °F 39.0 °F 43.0 °F 96% 29.41 in 10.0 mi WSW 9.2 mph - 0.02 in Rain Light Rain
8:11 AM 45.0 °F 41.2 °F 43.0 °F 93% 29.41 in 10.0 mi WSW 6.9 mph - 0.00 in   Overcast
8:39 AM 45.0 °F 40.6 °F 43.0 °F 93% 29.43 in 10.0 mi WSW 8.1 mph - 0.00 in   Overcast
8:53 AM 45.0 °F 40.1 °F 43.0 °F 93% 29.45 in 10.0 mi WSW 9.2 mph - 0.00 in   Overcast
9:18 AM 46.0 °F 41.9 °F 43.0 °F 89% 29.45 in 10.0 mi WSW 8.1 mph - N/A   Overcast
9:29 AM 46.0 °F 41.9 °F 44.1 °F 93% 29.45 in 10.0 mi WSW 8.1 mph - N/A   Overcast
9:43 AM 46.0 °F 42.5 °F 44.1 °F 93% 29.46 in 10.0 mi WSW 6.9 mph - N/A   Overcast
9:53 AM 46.0 °F 42.5 °F 44.1 °F 93% 29.47 in 10.0 mi WSW 6.9 mph - N/A   Overcast
10:53 AM 48.0 °F - 45.0 °F 89% 29.49 in 10.0 mi West 10.4 mph - N/A   Overcast
11:53 AM 48.0 °F - 44.1 °F 86% 29.51 in 10.0 mi West 10.4 mph - N/A   Overcast
12:53 PM 48.9 °F - 43.0 °F 80% 29.52 in 10.0 mi WNW 11.5 mph - N/A   Overcast
1:53 PM 48.0 °F - 43.0 °F 83% 29.54 in 10.0 mi WNW 6.9 mph - N/A   Overcast
2:08 PM 48.9 °F - 43.0 °F 80% 29.53 in 10.0 mi West 9.2 mph - N/A   Overcast
2:29 PM 48.0 °F - 43.0 °F 83% 29.54 in 10.0 mi West 9.2 mph - 0.00 in Rain Light Rain
2:53 PM 46.9 °F - 44.1 °F 90% 29.57 in 8.0 mi West 10.4 mph - 0.00 in Rain Light Rain
3:24 PM 46.9 °F - 44.1 °F 90% 29.56 in 5.0 mi West 8.1 mph - 0.02 in Rain Light Rain
3:49 PM 46.4 °F 42.4 °F 44.6 °F 93% 29.57 in 5.0 mi West 8.1 mph - 0.04 in Rain Light Rain
3:53 PM 46.9 °F - 44.1 °F 90% 29.59 in 5.0 mi West 6.9 mph - 0.04 in Rain Light Rain
4:26 PM 46.9 °F - 45.0 °F 93% 29.59 in 5.0 mi West 5.8 mph - 0.02 in Rain Light Rain
4:53 PM 46.0 °F 41.0 °F 44.1 °F 93% 29.61 in 4.0 mi West 10.4 mph - 0.03 in Rain Light Rain
5:19 PM 46.0 °F 41.9 °F 44.1 °F 93% 29.61 in 5.0 mi WNW 8.1 mph - 0.01 in Rain Light Rain
5:29 PM 45.0 °F 40.1 °F 43.0 °F 93% 29.61 in 4.0 mi NNW 9.2 mph - 0.02 in Rain Rain
5:53 PM 44.1 °F 40.8 °F 43.0 °F 96% 29.64 in 4.0 mi NNW 5.8 mph - 0.06 in Rain Light Rain
6:24 PM 44.1 °F 41.5 °F 43.0 °F 96% 29.63 in 8.0 mi WNW 4.6 mph - 0.01 in   Overcast
6:53 PM 45.0 °F 41.2 °F 43.0 °F 93% 29.66 in 8.0 mi West 6.9 mph - 0.01 in Rain Light Rain
7:53 PM 44.1 °F 41.5 °F 43.0 °F 96% 29.68 in 10.0 mi WNW 4.6 mph - 0.00 in   Overcast
8:53 PM 44.1 °F 40.1 °F 42.1 °F 93% 29.70 in 10.0 mi WNW 6.9 mph - N/A   Overcast
9:53 PM 44.1 °F 40.1 °F 42.1 °F 93% 29.71 in 10.0 mi NW 6.9 mph - 0.00 in   Overcast
10:53 PM 43.0 °F 40.3 °F 42.1 °F 97% 29.73 in 10.0 mi NW 4.6 mph - 0.00 in   Overcast
11:09 PM 43.0 °F 40.3 °F 42.1 °F 97% 29.71 in 10.0 mi NNW 4.6 mph - N/A   Overcast
11:18 PM 43.0 °F 40.3 °F 42.1 °F 97% 29.71 in 10.0 mi NNW 4.6 mph - N/A   Overcast
11:46 PM 43.0 °F 40.3 °F 41.0 °F 93% 29.71 in 10.0 mi NW 4.6 mph - N/A   Overcast
11:53 PM 43.0 °F 39.5 °F 41.0 °F 93% 29.73 in 10.0 mi NNW 5.8 mph - N/A   Overcast